Location: Unspecified
(47.2333°N, 39.7000°E)
Time: 22:01:44
(UTC+00:00)

ISS - Pass Details

Date: 10 July 2022
Orbit: 412 x 420 km, 51.6° (Epoch: 17 August)

Event Time Altitude Azimuth Distance (km) Brightness Sun altitude
Rises 23:42:47 0° 292° (WNW) 2,363 -0.1 -14.2°
Reaches altitude 10° 23:44:56 10° 298° (WNW) 1,500 -1.0 -14.0°
Maximum altitude 23:48:12 47° 14° (NNE) 565 -2.7 -13.7°
Drops below altitude 10° 23:51:29 10° 90° (E) 1,502 -0.5 -13.4°
Sets 23:53:38 0° 96° (E) 2,367 0.5 -13.1°
